[[{"header":{"parameterUnit":"m.s-1","parameterCategory":1,"la1":30.2991,"la2":30.254,"lo1":-89.0895,"lo2":-89.0444,"dy":0.0017,"dx":0.0017,"nx":28,"ny":28,"refTime":"2024-04-08T03:00:00:Z","depth":0,"parameterNumber":2,"parameterNumberName":"U-component_of_WINDS"},"data":[0,0,0,0,0,0,0,0,0,0,0,0,0,0,0,0,0,0,0,0,0,0,0,0,0,0,0,0,0,0,0,0,0,0,0,0,0,0,0,0,0,0,0,0,0,0,0,0,0,0,0,0,0,0,0,0,0,0,-4.0024,-4.0025,0,-4.0165,-4.0167,-4.0168,-4.0201,-4.02,-4.0199,-4.0198,-4.0341,-4.0345,-4.035,0,0,0,0,0,0,0,0,0,0,0,0,0,-3.9781,-3.9785,-4.0023,-4.0025,-4.0027,-4.0165,-4.0167,-4.0169,-4.0201,-4.02,-4.0199,-4.0198,-4.0339,-4.0345,-4.0351,0,0,0,0,0,0,0,0,0,0,0,0,0,-3.9901,-3.9787,-4.0023,-4.006,-4.0065,-4.0164,-4.0167,-4.0169,-4.0201,-4.02,-4.0198,-4.0197,-4.0337,-4.0344,-4.0351,-4.0424,0,0,-4.0373,-4.0376,0,0,0,0,0,0,0,0,-3.9894,-3.9909,-4.0053,-4.0057,-4.0063,-4.0164,-4.0134,-4.0255,-4.0202,-4.0149,-4.0198,-4.0196,-4.0283,-4.0294,-4.0324,-4.0431,-4.0437,-4.0373,-4.0378,-4.0381,-4.0383,0,0,0,0,0,0,0,-3.9885,-3.9904,-4.0079,-4.0055,-4.0061,-4.0069,-4.0085,-4.0157,-4.0222,-4.0154,-4.0157,-4.0173,-4.0286,-4.0317,-4.0328,-4.0439,-4.0373,-4.038,-4.0384,-4.0387,-4.0613,-4.0615,0,0,0,0,0,0,-3.9871,-3.9896,-4.0075,-4.0084,-3.9973,-4.0075,-4.0092,-4.0133,-4.0222,-4.0234,-4.0174,-4.0174,-4.0306,-4.0319,-4.0333,-4.0424,-4.0381,-4.0387,-4.0391,-4.0612,-4.0614,-4.0616,0,0,0,0,0,0,-3.9866,-3.9887,-4.0069,-3.9991,-4.0015,-4.008,-4.0126,-4.0136,-4.0168,-4.0237,-4.0249,-4.0194,-4.0305,-4.0323,-4.0401,-4.0429,-4.0391,-4.0397,-4.0609,-4.0612,-4.0615,-4.0605,0,0,0,0,0,0,-3.9858,-3.9884,-3.9912,-3.9991,-4.0019,-4.0135,-4.0128,-4.014,-4.0181,-4.0182,-4.0259,-4.0271,-4.0306,-4.0391,-4.0408,-4.0438,-4.0402,-4.0607,-4.0611,-4.0614,-4.0603,-4.0607,-4.0611,0,0,0,0,0,-3.985,-3.9904,-3.9914,-3.9935,-4.0055,-4.0137,-4.0152,-4.0192,-4.0183,-4.0211,-4.0256,-4.0268,-4.0424,-4.0398,-4.0419,-4.0451,-4.0606,-4.061,-4.0614,-4.0602,-4.0607,-4.0611,0,0,0,0,0,0,-3.9825,-3.9914,-3.9927,-4.0008,-4.0065,-4.0142,-4.0179,-4.0196,-4.0256,-4.0254,-4.03,-4.0318,-4.0393,-4.043,-4.04,-4.0526,-4.0514,-4.0523,-4.0498,-4.0504,-4.0507,-4.0495,-4.0408,0,0,0,0,0,-3.9829,-3.9888,-3.9963,-4.0027,-4.0055,-4.0113,-4.0149,-4.0175,-4.0236,-4.026,-4.031,-4.0368,-4.043,-4.0469,-4.053,-4.061,-4.0627,-4.0643,-4.0646,-4.0649,-4.0654,-4.07,-4.0707,-4.0629,-4.0629,-4.0629,0,0,-3.9837,-3.9894,-3.9928,-4.0024,-4.0071,-4.013,-4.0132,-4.0195,-4.024,-4.0269,-4.0346,-4.0385,-4.0453,-4.0533,-4.057,-4.0566,-4.0681,-4.0654,-4.0656,-4.066,-4.0705,-4.0712,-4.0719,-4.0632,-4.0631,-4.0631,0,0,-3.9883,-3.9932,-3.9991,-4.0039,-4.0111,-4.0149,-4.0163,-4.0239,-4.0267,-4.0346,-4.0369,-4.0423,-4.0529,-4.0576,-4.0614,-4.0681,-4.0695,-4.07,-4.0718,-4.0762,-4.0768,-4.0773,-4.0796,-4.0804,-4.0706,-4.0706,-4.0706,0,-3.9884,-3.9975,-4.0019,-4.0081,-4.0123,-4.0154,-4.0214,-4.0258,-4.0346,-4.0374,-4.0369,-4.0503,-4.0551,-4.0642,-4.0659,-4.0689,-4.0706,-4.069,-4.0764,-4.077,-4.0776,-4.0798,-4.0806,-4.0706,-4.0706,-4.0706,-4.0706,0,-3.9972,-4.0035,-4.0075,-4.0159,-4.0206,-4.0267,-4.032,-4.0362,-4.0385,-4.0424,-4.0504,-4.0563,-4.0637,-4.0661,-4.0683,-4.0756,-4.0751,-4.0754,-4.0743,-4.0782,-4.0804,-4.0813,-4.0706,-4.0706,-4.0706,-4.0706,0,0,-4.0002,-4.0113,-4.0126,-4.0166,-4.0249,-4.0298,-4.0362,-4.0435,-4.0469,-4.053,-4.0583,-4.0674,-4.0678,-4.0721,-4.075,-4.0789,-4.0837,-4.0787,-4.079,-4.0793,-4.092,-4.0915,-4.0924,-4.0848,-4.085,-4.0852,-4.0914,0,-4.0056,-4.0169,-4.0212,-4.0304,-4.0363,-4.0396,-4.0451,-4.0508,-4.0547,-4.0603,-4.0646,-4.0709,-4.071,-4.0736,-4.0777,-4.0823,-4.0863,-4.0819,-4.0897,-4.0899,-4.0876,-4.0936,-4.093,-4.0986,-4.0923,-4.0924,-4.0925,0,-4.0133,-4.0196,-4.0294,-4.0372,-4.0398,-4.0446,-4.0517,-4.0571,-4.0637,-4.0663,-4.0712,-4.0739,-4.0807,-4.0794,-4.0887,-4.0856,-4.0892,-4.092,-4.0923,-4.0929,-4.0912,-4.0941,-4.1005,-4.1012,-4.0939,-4.0938,-4.0937,0,-4.0143,-4.0252,-4.0325,-4.0358,-4.0451,-4.0484,-4.0524,-4.0589,-4.0631,-4.0693,-4.0721,-4.0791,-4.0828,-4.0882,-4.0927,-4.0913,-4.1016,-4.1007,-4.1038,-4.1037,-4.1055,-4.1053,-4.1123,-4.1082,-4.1082,-4.1082,-4.1082,0,-4.0197,-4.0256,-4.0331,-4.0375,-4.0442,-4.0492,-4.0557,-4.0599,-4.0657,-4.0711,-4.0744,-4.0794,-4.0852,-4.0909,-4.0945,-4.1017,-4.1034,-4.1056,-4.1064,-4.1052,-4.1049,-4.1073,-4.1069,-4.1084,-4.1084,-4.1083,-4.1083,0,-4.0218,-4.0271,-4.0352,-4.0434,-4.0456,-4.0502,-4.0572,-4.0617,-4.0659,-4.0726,-4.0745,-4.081,-4.088,-4.0931,-4.1021,-4.1045,-4.1121,-4.1131,-4.1098,-4.1102,-4.113,-4.1126,-4.1216,-4.123,-4.1182,-4.1182,-4.1182,0,-4.0247,-4.0293,-4.0381,-4.0419,-4.046,-4.0521,-4.0565,-4.0617,-4.066,-4.074,-4.0775,-4.0848,-4.0907,-4.1017,-4.1072,-4.1141,-4.1152,-4.1179,-4.1162,-4.1148,-4.115,-4.1146,-4.115,-4.118,-4.118,-4.118,-4.118,0,-4.0294,-4.0319,-4.038,-4.0451,-4.0502,-4.0561,-4.0619,-4.0649,-4.0712,-4.0759,-4.0831,-4.0878,-4.0971,-4.1041,-4.1116,-4.1158,-4.1179,-4.1186,-4.1196,-4.1182,-4.1161,-4.1171,-4.1102,-4.1183,-4.1182,-4.1182,-4.1182,-4.1182,-4.0319,-4.0362,-4.043,-4.0498,-4.0548,-4.0603,-4.0649,-4.0698,-4.0759,-4.0838,-4.0866,-4.094,-4.1007,-4.111,-4.1152,-4.1211,-4.1211,-4.1226,-4.123,-4.1232,-4.1231,-4.1154,-4.1225,-4.1225,-4.1225,-4.1225,-4.1225,0,-4.0366,-4.0412,-4.0474,-4.0556,-4.061,-4.0628,-4.0695,-4.0738,-4.0802,-4.0863,-4.0923,-4.1006,-4.1075,-4.1138,-4.121,-4.1245,-4.1257,-4.1262,-4.1259,-4.1268,-4.1227,-4.121,-4.1251,-4.1251,-4.1251,-4.1251,-4.1251,-4.1251,-4.0396,-4.0469,-4.0502,-4.0601,-4.0647,-4.072,-4.0757,-4.0808,-4.0857,-4.0948,-4.1006,-4.1047,-4.1109,-4.1187,-4.1251,-4.1268,-4.1292,-4.1295,-4.1314,-4.1274,-4.1271,-4.1267,-4.1251,-4.13,-4.13,-4.1349,-4.1349,-4.135]},{"header":{"parameterUnit":"m.s-1","parameterCategory":1,"la1":30.2991,"la2":30.254,"lo1":-89.0895,"lo2":-89.0444,"dy":0.0017,"dx":0.0017,"nx":28,"ny":28,"refTime":"2024-04-08T03:00:00:Z","depth":0,"parameterNumber":3,"parameterNumberName":"V-component_of_WINDS"},"data":[0,0,0,0,0,0,0,0,0,0,0,0,0,0,0,0,0,0,0,0,0,0,0,0,0,0,0,0,0,0,0,0,0,0,0,0,0,0,0,0,0,0,0,0,0,0,0,0,0,0,0,0,0,0,0,0,0,0,3.4822,3.4822,0,3.4809,3.4809,3.4809,3.4806,3.4807,3.4807,3.4807,3.4791,3.479,3.479,0,0,0,0,0,0,0,0,0,0,0,0,0,3.4845,3.4844,3.4822,3.4822,3.4822,3.4809,3.4809,3.4809,3.4806,3.4807,3.4807,3.4807,3.4791,3.479,3.479,0,0,0,0,0,0,0,0,0,0,0,0,0,3.4834,3.4844,3.4822,3.4819,3.4819,3.4809,3.4809,3.4809,3.4806,3.4807,3.4807,3.4807,3.4791,3.479,3.479,3.4781,0,0,3.4787,3.4787,0,0,0,0,0,0,0,0,3.4834,3.4833,3.482,3.482,3.4819,3.481,3.4811,3.4799,3.4806,3.4811,3.4807,3.4807,3.4797,3.4796,3.4793,3.4781,3.478,3.4787,3.4787,3.4786,3.4786,0,0,0,0,0,0,0,3.4835,3.4833,3.4817,3.482,3.4819,3.4818,3.4817,3.4809,3.4803,3.4811,3.481,3.4809,3.4797,3.4793,3.4792,3.478,3.4787,3.4787,3.4786,3.4786,3.4762,3.4762,0,0,0,0,0,0,3.4837,3.4834,3.4817,3.4817,3.4827,3.4818,3.4816,3.4812,3.4803,3.4802,3.4809,3.4809,3.4795,3.4793,3.4792,3.4782,3.4786,3.4786,3.4785,3.4762,3.4762,3.4762,0,0,0,0,0,0,3.4837,3.4835,3.4818,3.4825,3.4823,3.4817,3.4813,3.4812,3.4809,3.4802,3.4801,3.4807,3.4795,3.4793,3.4784,3.4781,3.4785,3.4785,3.4762,3.4762,3.4762,3.4762,0,0,0,0,0,0,3.4838,3.4835,3.4832,3.4825,3.4823,3.4811,3.4813,3.4812,3.4808,3.4808,3.48,3.4798,3.4795,3.4786,3.4784,3.478,3.4784,3.4762,3.4762,3.4762,3.4762,3.4762,3.4762,0,0,0,0,0,3.4838,3.4832,3.4832,3.483,3.4819,3.4811,3.4809,3.4806,3.4808,3.4804,3.48,3.4799,3.4782,3.4785,3.4783,3.4779,3.4762,3.4762,3.4762,3.4763,3.4762,3.4762,0,0,0,0,0,0,3.4837,3.4831,3.4831,3.4822,3.4817,3.4811,3.4806,3.4805,3.4799,3.48,3.4795,3.4793,3.4785,3.4781,3.4784,3.4771,3.4772,3.4772,3.4774,3.4774,3.4773,3.4774,3.4783,0,0,0,0,0,3.4836,3.4831,3.4825,3.4818,3.4816,3.4812,3.4808,3.4806,3.4801,3.4798,3.4793,3.4788,3.4782,3.4777,3.4771,3.4762,3.4761,3.4759,3.4759,3.4758,3.4757,3.4754,3.4753,3.476,3.476,3.476,0,0,3.4833,3.4829,3.4826,3.4818,3.4814,3.4809,3.481,3.4803,3.4799,3.4797,3.4789,3.4786,3.4779,3.4771,3.4767,3.4767,3.4756,3.4758,3.4758,3.4757,3.4753,3.4753,3.4752,3.476,3.476,3.476,0,0,3.4825,3.4822,3.4816,3.4812,3.4807,3.4805,3.4803,3.4797,3.4795,3.4788,3.4786,3.4781,3.477,3.4766,3.4763,3.4756,3.4754,3.4754,3.4752,3.4748,3.4747,3.4747,3.4745,3.4744,3.4753,3.4753,3.4753,0,3.4822,3.4814,3.4812,3.4807,3.4804,3.4803,3.4797,3.4794,3.4786,3.4784,3.4785,3.4773,3.4768,3.4759,3.4758,3.4755,3.4754,3.4754,3.4748,3.4747,3.4747,3.4745,3.4744,3.4753,3.4753,3.4753,3.4753,0,3.4811,3.4806,3.4801,3.4796,3.4792,3.4786,3.4784,3.4781,3.478,3.4777,3.477,3.4765,3.4759,3.4757,3.4755,3.4748,3.4749,3.4749,3.475,3.4746,3.4744,3.4743,3.4753,3.4753,3.4753,3.4753,0,0,3.48,3.4795,3.4793,3.4792,3.4787,3.4782,3.4777,3.4772,3.4769,3.4765,3.476,3.4753,3.4753,3.4749,3.4747,3.4744,3.474,3.4745,3.4745,3.4744,3.4733,3.4733,3.4732,3.474,3.474,3.474,3.4734,0,3.4791,3.4783,3.4782,3.4774,3.4769,3.477,3.4765,3.4762,3.476,3.4756,3.4754,3.4748,3.4749,3.4747,3.4744,3.4741,3.4738,3.4742,3.4735,3.4735,3.4737,3.4731,3.473,3.4725,3.4733,3.4733,3.4733,0,3.478,3.4777,3.4768,3.4766,3.4764,3.476,3.4756,3.4752,3.4749,3.4747,3.4744,3.4744,3.4738,3.4741,3.4734,3.4737,3.4734,3.4733,3.4732,3.4731,3.4733,3.4729,3.4723,3.4722,3.4732,3.4732,3.4732,0,3.4773,3.4766,3.4761,3.4759,3.4756,3.4753,3.4752,3.4749,3.4746,3.4743,3.4741,3.4737,3.4734,3.4731,3.4729,3.4731,3.4723,3.4724,3.4722,3.4722,3.4719,3.4719,3.4712,3.4718,3.4718,3.4718,3.4718,0,3.4763,3.4758,3.4758,3.4755,3.475,3.4749,3.4744,3.4743,3.474,3.4737,3.4737,3.4733,3.4732,3.4728,3.4727,3.4722,3.472,3.4719,3.4719,3.4719,3.4719,3.4717,3.4717,3.4718,3.4718,3.4718,3.4718,0,3.4754,3.4754,3.4748,3.4746,3.4746,3.4742,3.4741,3.4737,3.4737,3.4732,3.4731,3.4729,3.4725,3.4724,3.4718,3.4718,3.4712,3.4712,3.4713,3.4713,3.4711,3.4711,3.4701,3.47,3.4707,3.4707,3.4707,0,3.4748,3.4744,3.4743,3.4741,3.474,3.4736,3.4734,3.4734,3.4732,3.4729,3.4727,3.4723,3.472,3.4714,3.4712,3.4708,3.4708,3.4705,3.4707,3.4708,3.4708,3.4708,3.4708,3.4704,3.4704,3.4704,3.4704,0,3.4737,3.4737,3.4735,3.4733,3.473,3.4728,3.4726,3.4725,3.4725,3.4722,3.4719,3.4717,3.4713,3.4709,3.4706,3.4704,3.4704,3.4704,3.4703,3.4703,3.4704,3.4704,3.4712,3.4704,3.4704,3.4704,3.4704,3.4704,3.4729,3.4726,3.4725,3.4723,3.4722,3.472,3.4718,3.4717,3.4715,3.4712,3.4712,3.4709,3.4707,3.4703,3.4701,3.4699,3.4699,3.4698,3.4697,3.4697,3.4697,3.4705,3.4698,3.4698,3.4698,3.4698,3.4698,0,3.4718,3.4718,3.4716,3.4714,3.4712,3.4714,3.4712,3.4711,3.4708,3.4706,3.4704,3.4701,3.4698,3.4697,3.4694,3.4693,3.4693,3.4692,3.4692,3.4691,3.4696,3.4698,3.4692,3.4692,3.4692,3.4692,3.4692,3.4692,3.4712,3.4708,3.4709,3.4705,3.4705,3.4702,3.4701,3.47,3.4699,3.4696,3.4694,3.4694,3.4693,3.469,3.4688,3.4688,3.4687,3.4686,3.4686,3.469,3.4691,3.4691,3.4692,3.4686,3.4686,3.4681,3.4681,3.4681]}]]